Location: El Bakhil
(32.7726°N, 5.5387°W)
Time: 03:34:33
(UTC+00:00)

AO-73 - Pass Details

Date: 12 August 2021
Orbit: 581 x 661 km, 97.6° (Epoch: 26 September)

Event Time Altitude Azimuth Distance (km) Brightness Sun altitude
Rises 05:01:36 0° 12° (NNE) 2,991 ? -9.1°
Reaches altitude 10° 05:03:50 10° 13° (NNE) 2,080 ? -8.6°
Maximum altitude 05:08:24 86° 100° (E) 668 ? -7.8°
Drops below altitude 10° 05:12:56 10° 191° (S) 2,067 ? -6.9°
Sets 05:15:08 0° 192° (SSW) 2,970 ? -6.4°
